GRARBER Weather Reports


Display with metric or nautical units.
time (UTC)temp
F
wind
direction
speed
MPH
gust
MPH
rain 1hr
in
rain 24hr
in
rain mn
in
humidity
%
barometer
mb
20260906102056 50 270 5.0 0.0 0.00 0.00 0.00 76
20260906091654 48 260 8.0 0.0 0.00 0.00 0.00 61
20260906081655 46 270 9.0 16.0 0.00 0.00 0.00 75
20260906071954 45 290 7.0 0.0 0.00 0.00 0.00 93
20260906061654 43 300 13.0 20.0 0.00 0.00 0.00 93
20260906051653 43 300 14.0 0.0 0.00 0.00 0.00 99
20260906042055 43 300 14.0 0.0 0.00 0.00 0.00 99
20260906031654 43 300 13.0 0.0 0.00 0.00 0.00 99
20260906021654 45 310 15.0 22.0 0.00 0.00 0.00 87
20260906011953 45 310 16.0 23.0 0.00 0.00 0.00 87
20260906001654 46 310 15.0 22.0 0.00 0.00 0.00 75
20260905231655 46 310 16.0 0.0 0.00 0.00 0.00 75
20260905222056 46 300 15.0 23.0 0.00 0.00 0.00 81
20260905211653 48 300 15.0 0.0 0.00 0.00 0.00 76
20260905201654 50 300 15.0 25.0 0.00 0.00 0.00 76
20260905191955 52 280 21.0 30.0 0.00 0.00 0.00 71
20260905181653 52 270 24.0 36.0 0.00 0.00 0.00 71
20260905171654 54 260 24.0 33.0 0.00 0.00 0.00 66
20260905162057 54 260 25.0 36.0 0.00 0.00 0.00 71
20260905152121 54 250 25.0 39.0 0.00 0.00 0.00 87
20260905142227 50 240 23.0 36.0 0.00 0.00 0.00 99
20260905131854 50 250 22.0 33.0 0.00 0.00 0.00 99
20260905121623 50 240 23.0 35.0 0.00 0.00 0.00 99
20260905111656 48 240 20.0 28.0 0.00 0.00 0.00 99